Weather History for Glasgow, KY

Change the Weather History Date:

Tuesday, September 3, 2013

  Actual Average Record
Temperature  
Mean Temperature 72 °F -  
Max Temperature 81 °F 86 °F 100 °F (2011)
Min Temperature 62 °F 62 °F 51 °F (1967)
Cooling Degree Days 6    
Growing Degree Days 22 (Base 50)    
Moisture  
Dew Point 64 °F    
Average Humidity 80    
Maximum Humidity 100    
Minimum Humidity 49    
Precipitation  
Precipitation 0.00 in - - ()
Sea Level Pressure  
Sea Level Pressure 29.99 in    
Wind  
Wind Speed 1 mph (North)    
Max Wind Speed 9 mph    
Max Gust Speed -    
Visibility 9 miles    
Events      
Averages and records for this station are not official NWS values.
T = Trace of Precipitation, MM = Missing Value Source: NWS Daily Summary

Daily Weather History Graph

Daily Weather History Graph

Search for Another Location

Airport:

Trip Planner

Search our weather history database for the weather conditions in past years. The results will help you decide how hot, cold, wet, or windy it might be!

Date:

Astronomy

Sep. 03, 2013 Rise Set
Actual Time 6:16 AM CDT 7:09 PM CDT
Civil Twilight 5:49 AM CDT 7:35 PM CDT
Nautical Twilight 5:18 AM CDT 8:06 PM CDT
Astronomical Twilight 4:46 AM CDT 8:39 PM CDT
Moon 4:30 AM CDT (9/3) 5:55 PM CDT (9/3)
Length of Visible Light 13h 45m
Length of Day
12h 52m
Waning Crescent, 3% of the Moon is Illuminated
Sep 3
Waning Crescent
Sep 5
New
Sep 12
First Quarter
Sep 19
Full
Sep 26
Last Quarter

Hourly Weather History & Observations

Time (CDT) Temp. Heat Index Dew Point Humidity Pressure Visibility Wind Dir Wind Speed Gust Speed Precip Events Conditions
12:15 AM 70.7 °F - 70.7 °F 100% 29.91 in 7.0 mi Calm Calm - N/A   Scattered Clouds
12:35 AM 69.4 °F - 69.4 °F 100% 29.91 in 5.0 mi Calm Calm - N/A   Scattered Clouds
12:55 AM 68.7 °F - 68.7 °F 100% 29.91 in 3.0 mi Calm Calm - N/A   Scattered Clouds
1:15 AM 68.5 °F - 68.5 °F 100% 29.91 in 4.0 mi Calm Calm - N/A   Mostly Cloudy
1:35 AM 68.7 °F - 68.7 °F 100% 29.91 in 5.0 mi Calm Calm - N/A   Overcast
1:55 AM 69.3 °F - 69.3 °F 100% 29.91 in 5.0 mi Calm Calm - N/A   Overcast
2:15 AM 68.9 °F - 68.9 °F 100% 29.91 in 4.0 mi Calm Calm - N/A   Scattered Clouds
2:35 AM 68.0 °F - 68.0 °F 100% 29.92 in 5.0 mi Calm Calm - N/A   Clear
2:55 AM 67.8 °F - 67.8 °F 100% 29.92 in 3.0 mi Calm Calm - N/A   Clear
3:15 AM 67.1 °F - 67.1 °F 100% 29.91 in 3.0 mi Calm Calm - N/A   Clear
3:35 AM 66.9 °F - 66.9 °F 100% 29.91 in 4.0 mi Calm Calm - N/A   Clear
3:55 AM 66.7 °F - 66.7 °F 100% 29.91 in 5.0 mi Calm Calm - N/A   Clear
4:15 AM 66.7 °F - 66.7 °F 100% 29.92 in 7.0 mi Calm Calm - N/A   Clear
4:35 AM 66.4 °F - 66.4 °F 100% 29.92 in 7.0 mi Calm Calm - N/A   Clear
4:55 AM 65.8 °F - 65.8 °F 100% 29.93 in 5.0 mi Calm Calm - N/A   Scattered Clouds
5:15 AM 67.3 °F - 67.3 °F 100% 29.94 in 10.0 mi Calm Calm - N/A   Scattered Clouds
5:35 AM 66.7 °F - 66.7 °F 100% 29.95 in 7.0 mi Calm Calm - N/A   Clear
5:55 AM 66.4 °F - 66.4 °F 100% 29.96 in 10.0 mi Calm Calm - N/A   Clear
6:15 AM 66.7 °F - 66.2 °F 98% 29.96 in 10.0 mi Calm Calm - N/A   Clear
6:35 AM 66.7 °F - 66.0 °F 98% 29.97 in 10.0 mi Calm Calm - N/A   Mostly Cloudy
6:55 AM 67.3 °F - 65.8 °F 95% 29.98 in 10.0 mi Calm Calm - N/A   Overcast
7:15 AM 67.6 °F - 65.3 °F 92% 29.99 in 10.0 mi NE 3.5 mph - N/A   Scattered Clouds
7:35 AM 68.0 °F - 64.6 °F 89% 29.99 in 10.0 mi Calm Calm - N/A   Mostly Cloudy
7:55 AM 68.9 °F - 64.4 °F 86% 30.00 in 10.0 mi Calm Calm - N/A   Mostly Cloudy
8:15 AM 69.8 °F - 63.9 °F 81% 30.00 in 10.0 mi Calm Calm - N/A   Mostly Cloudy
8:35 AM 70.9 °F - 63.5 °F 77% 30.01 in 10.0 mi Calm Calm - N/A   Scattered Clouds
8:55 AM 71.6 °F - 63.5 °F 76% 30.01 in 10.0 mi NE 3.5 mph - N/A   Scattered Clouds
9:15 AM 72.1 °F - 63.9 °F 75% 30.01 in 10.0 mi Calm Calm - N/A   Mostly Cloudy
9:35 AM 72.9 °F - 63.7 °F 73% 30.02 in 10.0 mi NE 3.5 mph - N/A   Scattered Clouds
9:55 AM 74.5 °F - 63.7 °F 69% 30.02 in 10.0 mi ENE 3.5 mph - N/A   Scattered Clouds
10:15 AM 75.4 °F - 64.2 °F 68% 30.02 in 10.0 mi North 5.8 mph - N/A   Clear
10:35 AM 76.3 °F - 64.6 °F 67% 30.02 in 10.0 mi North 5.8 mph - N/A   Clear
10:55 AM 77.2 °F - 64.9 °F 66% 30.02 in 10.0 mi North 4.6 mph - N/A   Clear
11:15 AM 78.8 °F - 65.7 °F 64% 30.02 in 10.0 mi Calm Calm - N/A   Clear
11:35 AM 79.0 °F - 64.4 °F 61% 30.02 in 10.0 mi North 8.1 mph - N/A   Clear
11:55 AM 79.7 °F - 62.8 °F 56% 30.01 in 10.0 mi NE 5.8 mph - N/A   Clear
12:15 PM 80.6 °F 81.7 °F 62.2 °F 53% 30.01 in 10.0 mi Calm Calm - N/A   Scattered Clouds
12:35 PM 81.1 °F 82.1 °F 62.1 °F 52% 30.01 in 10.0 mi North 6.9 mph - N/A   Scattered Clouds
12:55 PM 80.4 °F 81.5 °F 62.1 °F 53% 30.01 in 10.0 mi North 4.6 mph - N/A   Scattered Clouds
1:15 PM 80.6 °F 81.6 °F 61.7 °F 52% 30.01 in 10.0 mi North 9.2 mph - N/A   Scattered Clouds
1:35 PM 81.1 °F 81.9 °F 61.0 °F 50% 30.00 in 10.0 mi North 6.9 mph - N/A   Scattered Clouds
1:55 PM 80.2 °F 81.4 °F 62.4 °F 54% 30.00 in 7.0 mi North 6.9 mph - N/A   Scattered Clouds
2:15 PM 81.3 °F 82.2 °F 61.7 °F 51% 30.00 in 10.0 mi North 6.9 mph - N/A   Scattered Clouds
2:35 PM 81.9 °F 82.5 °F 61.2 °F 49% 29.99 in 10.0 mi North 4.6 mph - N/A   Scattered Clouds
2:55 PM 80.1 °F 81.2 °F 62.1 °F 54% 29.99 in 10.0 mi North 5.8 mph - N/A   Mostly Cloudy
3:15 PM 79.7 °F - 62.1 °F 55% 29.99 in 10.0 mi North 8.1 mph - N/A   Clear
3:35 PM 80.1 °F 81.4 °F 62.6 °F 55% 29.99 in 10.0 mi NNW 6.9 mph - N/A   Scattered Clouds
3:55 PM 79.9 °F - 62.2 °F 55% 29.99 in 10.0 mi North 6.9 mph - N/A   Scattered Clouds
4:15 PM 79.7 °F - 62.8 °F 56% 29.99 in 10.0 mi North 8.1 mph - N/A   Scattered Clouds
4:35 PM 79.5 °F - 62.6 °F 56% 29.99 in 10.0 mi Calm Calm - N/A   Scattered Clouds
4:55 PM 79.2 °F - 61.9 °F 55% 29.99 in 10.0 mi North 5.8 mph - N/A   Clear
5:15 PM 78.1 °F - 62.2 °F 58% 29.99 in 10.0 mi North 5.8 mph - N/A   Clear
5:35 PM 78.4 °F - 61.9 °F 57% 29.99 in 10.0 mi North 3.5 mph - N/A   Scattered Clouds
5:55 PM 78.4 °F - 62.4 °F 58% 29.99 in 10.0 mi North 6.9 mph - N/A   Scattered Clouds
6:15 PM 76.8 °F - 61.9 °F 60% 29.99 in 10.0 mi North 4.6 mph - N/A   Clear
6:35 PM 75.9 °F - 61.7 °F 61% 30.00 in 10.0 mi North 3.5 mph - N/A   Scattered Clouds
6:55 PM 73.9 °F - 63.1 °F 69% 30.00 in 10.0 mi Calm Calm - N/A   Scattered Clouds
7:15 PM 72.9 °F - 62.6 °F 70% 30.00 in 10.0 mi Calm Calm - N/A   Scattered Clouds
7:35 PM 72.0 °F - 62.4 °F 72% 30.00 in 10.0 mi Calm Calm - N/A   Clear
7:55 PM 69.8 °F - 62.4 °F 77% 30.01 in 10.0 mi Calm Calm - N/A   Clear
8:15 PM 66.9 °F - 64.2 °F 91% 30.01 in 10.0 mi Calm Calm - N/A   Clear
8:35 PM 66.2 °F - 66.2 °F 100% 30.02 in 10.0 mi Calm Calm - N/A   Clear
8:55 PM 65.8 °F - 64.6 °F 96% 30.03 in 10.0 mi Calm Calm - N/A   Clear
9:15 PM 64.9 °F - 64.8 °F 99% 30.03 in 10.0 mi Calm Calm - N/A   Clear
9:35 PM 64.4 °F - 64.4 °F 100% 30.04 in 10.0 mi Calm Calm - N/A   Clear
9:55 PM 64.0 °F - 63.9 °F 99% 30.05 in 10.0 mi Calm Calm - N/A   Clear
10:15 PM 63.5 °F - 63.5 °F 100% 30.06 in 10.0 mi Calm Calm - N/A   Clear
10:35 PM 63.0 °F - 63.0 °F 100% 30.07 in 10.0 mi Calm Calm - N/A   Clear
10:55 PM 63.3 °F - 63.3 °F 100% 30.07 in 10.0 mi Calm Calm - N/A   Clear
11:15 PM 62.4 °F - 62.4 °F 100% 30.07 in 10.0 mi Calm Calm - N/A   Clear
11:35 PM 62.4 °F - 62.4 °F 100% 30.07 in 10.0 mi Calm Calm - N/A   Clear
11:55 PM 62.4 °F - 62.4 °F 100% 30.08 in 10.0 mi Calm Calm - N/A   Clear